timestamp,wind_dir_avg,wind_spd_avg,wind_spd_max_dir,wind_spd_gust,battery_voltage,lat,long
2021-09-25 00:04:00+00:00,79.0,3.94,104.0,9.6,12.65,47.59359,-54.27349
2021-09-25 00:14:01+00:00,78.0,4.7,88.0,8.79,12.65,47.59359,-54.27349
2021-09-25 00:24:01+00:00,81.0,4.99,94.0,9.16,12.65,47.59359,-54.27349
2021-09-25 00:34:01+00:00,71.0,7.36,72.0,9.37,12.65,47.59359,-54.27349
2021-09-25 00:44:01+00:00,77.0,5.64,71.0,8.37,12.65,47.59359,-54.27349
2021-09-25 00:54:01+00:00,70.0,7.12,72.0,9.34,12.65,47.59359,-54.27349
2021-09-25 01:04:01+00:00,71.0,5.38,69.0,7.41,12.65,47.59359,-54.27349
2021-09-25 01:14:00+00:00,63.0,5.42,59.0,7.13,12.65,47.59359,-54.27349
2021-09-25 01:24:00+00:00,75.0,4.51,77.0,8.64,12.65,47.59359,-54.27349
2021-09-25 01:34:00+00:00,76.0,3.92,85.0,4.79,12.65,47.59359,-54.27349
2021-09-25 01:44:00+00:00,77.0,3.78,80.0,5.15,12.65,47.59359,-54.27349
2021-09-25 01:54:00+00:00,58.0,4.57,61.0,5.16,12.65,47.59359,-54.27349
2021-09-25 02:04:00+00:00,58.0,5.1,57.0,5.98,12.65,47.59359,-54.27349
2021-09-25 02:14:00+00:00,58.0,5.12,59.0,5.56,12.57,47.59359,-54.27349
2021-09-25 02:24:00+00:00,64.0,4.71,58.0,6.13,12.57,47.59359,-54.27349
2021-09-25 02:34:00+00:00,65.0,4.64,57.0,5.92,12.57,47.59359,-54.27349
2021-09-25 02:44:00+00:00,59.0,5.52,75.0,6.69,12.57,47.59359,-54.27349
2021-09-25 02:54:00+00:00,53.0,5.72,52.0,6.71,12.57,47.59359,-54.27349
2021-09-25 03:04:00+00:00,54.0,5.36,58.0,6.0,12.57,47.59359,-54.27349
2021-09-25 03:14:00+00:00,52.0,5.18,54.0,6.41,12.57,47.59359,-54.27349
2021-09-25 03:24:00+00:00,56.0,5.06,61.0,5.92,12.57,47.59359,-54.27349
2021-09-25 03:34:00+00:00,59.0,4.1,78.0,4.87,12.57,47.59359,-54.27349
2021-09-25 03:44:00+00:00,55.0,5.19,55.0,5.91,12.57,47.59359,-54.27349
2021-09-25 03:54:00+00:00,61.0,4.45,58.0,5.29,12.57,47.59359,-54.27349
2021-09-25 04:04:00+00:00,59.0,3.86,56.0,5.09,12.57,47.59359,-54.27349
2021-09-25 04:14:01+00:00,74.0,3.31,69.0,4.13,12.57,47.59359,-54.27349
2021-09-25 04:24:01+00:00,53.0,3.58,54.0,4.17,12.57,47.59359,-54.27349
2021-09-25 04:34:01+00:00,65.0,3.07,50.0,4.19,12.57,47.59359,-54.27349
2021-09-25 04:44:01+00:00,65.0,3.89,60.0,4.68,12.57,47.59359,-54.27349
2021-09-25 04:54:01+00:00,79.0,1.83,81.0,2.32,12.57,47.59359,-54.27349
2021-09-25 05:04:01+00:00,92.0,2.3,93.0,3.2,12.57,47.59359,-54.27349
2021-09-25 05:14:01+00:00,98.0,2.07,89.0,2.52,12.57,47.59359,-54.27349
2021-09-25 05:24:01+00:00,85.0,1.91,79.0,2.33,12.57,47.59359,-54.27349
2021-09-25 05:34:01+00:00,97.0,2.09,92.0,2.92,12.57,47.59359,-54.27349
2021-09-25 05:44:01+00:00,121.0,1.91,130.0,2.38,12.57,47.59359,-54.27349
2021-09-25 05:54:01+00:00,109.0,2.16,127.0,3.46,12.57,47.59359,-54.27349
2021-09-25 06:04:01+00:00,119.0,2.98,128.0,3.98,12.57,47.59359,-54.27349
2021-09-25 06:14:01+00:00,122.0,1.29,100.0,2.12,12.49,47.59359,-54.27349
2021-09-25 06:24:01+00:00,123.0,2.16,117.0,2.58,12.49,47.59359,-54.27349
2021-09-25 06:34:01+00:00,151.0,0.93,134.0,1.69,12.49,47.59359,-54.27349
2021-09-25 06:44:01+00:00,143.0,2.87,135.0,3.45,12.49,47.59359,-54.27349
2021-09-25 06:54:01+00:00,142.0,3.37,143.0,3.78,12.49,47.59359,-54.27349
2021-09-25 07:04:01+00:00,139.0,3.56,141.0,4.03,12.49,47.59359,-54.27349
2021-09-25 07:14:01+00:00,123.0,2.7,125.0,3.05,12.49,47.59359,-54.27349
2021-09-25 07:24:01+00:00,132.0,2.27,136.0,3.28,12.49,47.59359,-54.27349
2021-09-25 07:34:01+00:00,127.0,2.1,133.0,2.96,12.49,47.59359,-54.27349
2021-09-25 07:44:01+00:00,128.0,1.62,131.0,2.31,12.49,47.59359,-54.27349
2021-09-25 07:54:01+00:00,123.0,2.54,126.0,3.05,12.49,47.59359,-54.27349
2021-09-25 08:04:01+00:00,128.0,2.3,127.0,2.87,12.49,47.59359,-54.27349
2021-09-25 08:14:01+00:00,120.0,1.45,128.0,2.12,12.41,47.59359,-54.27349
2021-09-25 08:24:01+00:00,95.0,1.56,110.0,2.05,12.41,47.59359,-54.27349
2021-09-25 08:34:01+00:00,101.0,1.7,78.0,2.53,12.41,47.59359,-54.27349
2021-09-25 08:44:01+00:00,95.0,1.87,96.0,2.23,12.41,47.59359,-54.27349
2021-09-25 08:54:01+00:00,107.0,1.31,122.0,2.18,12.41,47.59359,-54.27349
2021-09-25 09:04:01+00:00,85.0,1.1,85.0,1.55,12.41,47.59359,-54.27349
2021-09-25 09:14:01+00:00,84.0,1.19,89.0,1.81,12.41,47.59359,-54.27349
2021-09-25 09:24:01+00:00,102.0,1.06,148.0,1.46,12.41,47.59359,-54.27349
2021-09-25 09:34:01+00:00,99.0,1.6,104.0,2.32,12.41,47.59359,-54.27349
2021-09-25 09:44:01+00:00,176.0,1.32,181.0,1.8,12.41,47.59359,-54.27349
2021-09-25 09:54:01+00:00,358.0,1.56,354.0,2.16,12.41,47.59359,-54.27349
2021-09-25 10:04:01+00:00,24.0,2.0,21.0,2.4,12.41,47.59359,-54.27349
2021-09-25 10:14:01+00:00,353.0,2.42,352.0,3.0,12.97,47.59359,-54.27349
2021-09-25 10:24:01+00:00,18.0,1.99,14.0,2.41,12.97,47.59359,-54.27349
2021-09-25 10:34:01+00:00,31.0,1.57,30.0,1.85,12.97,47.59359,-54.27349
2021-09-25 10:44:01+00:00,34.0,0.94,42.0,1.26,12.97,47.59359,-54.27349
2021-09-25 10:54:01+00:00,153.0,2.38,153.0,2.71,12.97,47.59359,-54.27349
2021-09-25 11:04:01+00:00,136.0,2.49,140.0,2.98,12.97,47.59359,-54.27349
2021-09-25 11:14:01+00:00,157.0,1.75,145.0,2.69,13.84,47.59359,-54.27349
2021-09-25 11:24:01+00:00,128.0,2.42,130.0,2.88,13.84,47.59359,-54.27349
2021-09-25 11:34:01+00:00,111.0,2.14,113.0,3.04,13.84,47.59359,-54.27349
2021-09-25 11:44:01+00:00,138.0,1.85,159.0,2.94,13.84,47.59359,-54.27349
2021-09-25 11:54:01+00:00,180.0,1.48,181.0,1.98,13.84,47.59359,-54.27349
2021-09-25 12:04:01+00:00,192.0,2.67,194.0,3.3,13.84,47.59359,-54.27349
2021-09-25 12:14:01+00:00,153.0,1.4,159.0,1.89,13.68,47.59359,-54.27349
2021-09-25 12:24:01+00:00,142.0,1.58,137.0,2.13,13.68,47.59359,-54.27349
2021-09-25 12:34:01+00:00,208.0,2.12,201.0,2.7,13.68,47.59359,-54.27349
2021-09-25 12:44:01+00:00,198.0,2.45,195.0,3.09,13.68,47.59359,-54.27349
2021-09-25 12:54:01+00:00,174.0,2.55,169.0,3.41,13.68,47.59359,-54.27349
2021-09-25 13:04:01+00:00,168.0,1.79,167.0,2.7,13.68,47.59359,-54.27349
2021-09-25 13:14:01+00:00,184.0,1.73,183.0,2.25,14.32,47.59359,-54.27349
2021-09-25 13:24:01+00:00,176.0,1.42,199.0,1.84,14.32,47.59359,-54.27349
2021-09-25 13:34:01+00:00,208.0,2.05,199.0,2.42,14.32,47.59359,-54.27349
2021-09-25 13:44:01+00:00,191.0,1.93,188.0,2.81,14.32,47.59359,-54.27349
2021-09-25 13:54:01+00:00,212.0,1.93,215.0,2.39,14.32,47.59359,-54.27349
2021-09-25 14:04:01+00:00,207.0,1.93,200.0,2.27,14.32,47.59359,-54.27349
2021-09-25 14:14:01+00:00,213.0,2.32,215.0,2.68,14.24,47.59359,-54.27349
2021-09-25 14:24:01+00:00,210.0,1.96,212.0,2.23,14.24,47.59359,-54.27349
2021-09-25 14:34:01+00:00,216.0,1.48,221.0,1.76,14.24,47.59359,-54.27349
2021-09-25 14:44:01+00:00,224.0,2.71,215.0,3.19,14.24,47.59359,-54.27349
2021-09-25 14:54:01+00:00,221.0,2.74,218.0,3.29,14.24,47.59359,-54.27349
2021-09-25 15:04:01+00:00,209.0,2.85,205.0,3.54,14.24,47.59359,-54.27349
2021-09-25 15:14:01+00:00,211.0,3.69,209.0,4.27,13.68,47.59359,-54.27349
2021-09-25 15:24:01+00:00,214.0,3.41,215.0,3.87,13.68,47.59359,-54.27349
2021-09-25 15:34:01+00:00,218.0,3.97,217.0,4.66,13.68,47.59359,-54.27349
2021-09-25 15:44:01+00:00,219.0,3.91,222.0,4.8,13.68,47.59359,-54.27349
2021-09-25 15:54:01+00:00,225.0,3.84,223.0,4.33,13.68,47.59359,-54.27349
2021-09-25 16:04:01+00:00,232.0,3.88,233.0,4.61,13.68,47.59359,-54.27349
2021-09-25 16:14:01+00:00,223.0,3.97,223.0,4.63,14.32,47.59359,-54.27349
2021-09-25 16:24:01+00:00,230.0,4.18,226.0,5.09,14.32,47.59359,-54.27349
2021-09-25 16:34:01+00:00,235.0,4.56,232.0,4.9,14.32,47.59359,-54.27349
2021-09-25 16:44:01+00:00,224.0,4.64,216.0,5.12,14.32,47.59359,-54.27349
2021-09-25 16:54:01+00:00,224.0,5.48,225.0,6.23,14.32,47.59359,-54.27349
2021-09-25 17:04:01+00:00,234.0,5.14,231.0,6.08,14.32,47.59359,-54.27349
2021-09-25 17:14:01+00:00,223.0,5.55,221.0,5.99,14.32,47.59359,-54.27349
2021-09-25 17:24:01+00:00,226.0,5.11,225.0,5.7,14.32,47.59359,-54.27349
2021-09-25 17:34:01+00:00,229.0,5.16,231.0,5.83,14.32,47.59359,-54.27349
2021-09-25 17:44:01+00:00,222.0,5.91,217.0,6.88,14.32,47.59359,-54.27349
2021-09-25 17:54:01+00:00,223.0,5.94,222.0,6.68,14.32,47.59359,-54.27349
2021-09-25 18:04:01+00:00,214.0,6.32,219.0,6.87,14.32,47.59359,-54.27349
2021-09-25 18:14:01+00:00,214.0,6.55,215.0,7.28,14.0,47.59359,-54.27349
2021-09-25 18:24:01+00:00,214.0,6.33,215.0,7.2,14.0,47.59359,-54.27349
2021-09-25 18:34:01+00:00,212.0,6.87,212.0,7.49,14.0,47.59359,-54.27349
2021-09-25 18:44:01+00:00,212.0,6.73,214.0,7.22,14.0,47.59359,-54.27349
2021-09-25 18:54:01+00:00,212.0,6.3,208.0,7.21,14.0,47.59359,-54.27349
2021-09-25 19:04:01+00:00,211.0,6.73,209.0,7.42,14.0,47.59359,-54.27349
2021-09-25 19:14:01+00:00,210.0,6.7,213.0,7.34,13.92,47.59359,-54.27349
2021-09-25 19:24:01+00:00,211.0,7.05,208.0,7.61,13.92,47.59359,-54.27349
2021-09-25 19:34:01+00:00,213.0,7.45,214.0,8.1,13.92,47.59359,-54.27349
2021-09-25 19:44:01+00:00,212.0,7.17,214.0,7.78,13.92,47.59359,-54.27349
2021-09-25 19:54:01+00:00,210.0,7.55,213.0,8.26,13.92,47.59359,-54.27349
2021-09-25 20:04:01+00:00,212.0,6.87,208.0,7.36,13.92,47.59359,-54.27349
2021-09-25 20:14:01+00:00,210.0,6.41,207.0,7.57,13.84,47.59359,-54.27349
2021-09-25 20:24:01+00:00,212.0,6.57,211.0,7.15,13.84,47.59359,-54.27349
2021-09-25 20:34:01+00:00,211.0,6.63,213.0,7.55,13.84,47.59359,-54.27349
2021-09-25 20:44:01+00:00,215.0,6.66,217.0,7.29,13.84,47.59359,-54.27349
2021-09-25 20:54:01+00:00,214.0,6.57,214.0,7.75,13.84,47.59359,-54.27349
2021-09-25 21:04:01+00:00,221.0,6.73,228.0,8.47,13.84,47.59359,-54.27349
2021-09-25 21:14:01+00:00,213.0,6.73,211.0,7.44,13.37,47.59359,-54.27349
2021-09-25 21:24:01+00:00,216.0,7.7,218.0,8.6,13.37,47.59359,-54.27349
2021-09-25 21:34:01+00:00,216.0,6.9,215.0,8.07,13.37,47.59359,-54.27349
2021-09-25 21:44:01+00:00,226.0,7.05,230.0,8.25,13.37,47.59359,-54.27349
2021-09-25 21:54:01+00:00,220.0,6.73,217.0,8.01,13.37,47.59359,-54.27349
2021-09-25 22:04:01+00:00,226.0,6.88,230.0,7.92,13.37,47.59359,-54.27349
2021-09-25 22:14:01+00:00,228.0,7.63,233.0,9.23,12.81,47.59359,-54.27349
2021-09-25 22:24:01+00:00,223.0,6.69,217.0,7.77,12.81,47.59359,-54.27349
2021-09-25 22:34:01+00:00,215.0,6.6,205.0,7.83,12.81,47.59359,-54.27349
2021-09-25 22:44:01+00:00,228.0,5.51,226.0,6.31,12.81,47.59359,-54.27349
2021-09-25 22:54:01+00:00,225.0,5.92,235.0,7.96,12.81,47.59359,-54.27349
2021-09-25 23:04:01+00:00,216.0,6.18,216.0,6.96,12.81,47.59359,-54.27349
2021-09-25 23:14:00+00:00,224.0,5.8,218.0,6.91,12.65,47.59359,-54.27349
2021-09-25 23:24:00+00:00,216.0,6.49,214.0,8.3,12.65,47.59359,-54.27349
2021-09-25 23:34:00+00:00,226.0,7.45,232.0,9.19,12.65,47.59359,-54.27349
2021-09-25 23:44:00+00:00,229.0,6.0,237.0,8.27,12.65,47.59359,-54.27349
2021-09-25 23:54:00+00:00,216.0,7.15,210.0,8.29,12.65,47.59359,-54.27349
